Ravenna, OH

7:53 AM EST on February 25, 2017 (GMT -0500)
Ravenna

Weather History for KPOV - February, 2013

Change the Weather History Date:

Thursday, February 7, 2013

  Actual Average (KCAK) Record (KCAK)
Temperature  
Mean Temperature 28 °F -  
Max Temperature 43 °F 31 °F 61 °F (1925)
Min Temperature 14 °F 16 °F -5 °F (1895)
Degree Days  
Heating Degree Days 36    
Moisture  
Dew Point 19 °F    
Average Humidity 64    
Maximum Humidity 79    
Minimum Humidity 45    
Precipitation  
Precipitation 0.00 in - - ()
Sea Level Pressure  
Sea Level Pressure 30.12 in    
Wind  
Wind Speed 6 mph (ESE)    
Max Wind Speed 12 mph    
Max Gust Speed 16 mph    
Visibility 10 miles    
Events      
Averages and records for this station are not official NWS values.
T = Trace of Precipitation, MM = Missing Value Source: NWS Daily Summary

Daily Weather History Graph

Daily Weather History Graph

Search for Another Location

Airport or City:

Trip Planner

Search our weather history database for the weather conditions in past years. The results will help you decide how hot, cold, wet, or windy it might be!

Date:

Astronomy

Feb. 07, 2013 Rise Set
Actual Time 7:29 AM EST 5:49 PM EST
Civil Twilight 7:00 AM EST 6:18 PM EST
Nautical Twilight 6:27 AM EST 6:50 PM EST
Astronomical Twilight 5:55 AM EST 7:23 PM EST
Moon 5:08 AM EST (2/7) 3:11 PM EST (2/7)
Length of Visible Light 11h 17m
Length of Day
10h 20m
Waning Crescent, 9% of the Moon is Illuminated
Feb 7
Waning Crescent
Feb 10
New
Feb 17
First Quarter
Feb 25
Full
Mar 4
Last Quarter

Hourly Weather History & Observations

Time (EST) Temp. Windchill Dew Point Humidity Pressure Visibility Wind Dir Wind Speed Gust Speed Precip Events Conditions
12:15 AM 15.4 °F 9.8 °F 9.1 °F 76% 30.24 in 10.0 mi ESE 3.5 mph - N/A   Clear
12:36 AM 17.2 °F 10.2 °F 8.6 °F 69% 30.24 in 10.0 mi ESE 4.6 mph - N/A   Clear
12:55 AM 14.2 °F 6.7 °F 5.5 °F 69% 30.24 in 10.0 mi ESE 4.6 mph - N/A   Clear
1:15 AM 14.7 °F 9.0 °F 9.1 °F 79% 30.24 in 10.0 mi ESE 3.5 mph - N/A   Clear
1:35 AM 18.7 °F 11.9 °F 9.7 °F 68% 30.24 in 10.0 mi ESE 4.6 mph - N/A   Clear
1:55 AM 18.1 °F - 9.7 °F 70% 30.25 in 10.0 mi Calm Calm - N/A   Clear
2:15 AM 15.1 °F 9.4 °F 8.4 °F 75% 30.26 in 10.0 mi ESE 3.5 mph - N/A   Clear
2:35 AM 18.5 °F 13.3 °F 9.9 °F 69% 30.26 in 10.0 mi East 3.5 mph - N/A   Scattered Clouds
2:55 AM 14.9 °F 7.5 °F 8.1 °F 74% 30.26 in 10.0 mi East 4.6 mph - N/A   Scattered Clouds
3:15 AM 14.9 °F 7.5 °F 9.0 °F 77% 30.25 in 10.0 mi East 4.6 mph - N/A   Scattered Clouds
3:35 AM 16.7 °F 8.3 °F 9.9 °F 74% 30.25 in 10.0 mi East 5.8 mph - N/A   Mostly Cloudy
3:55 AM 18.5 °F 10.4 °F 11.1 °F 73% 30.24 in 10.0 mi East 5.8 mph - N/A   Mostly Cloudy
4:15 AM 21.2 °F 13.6 °F 11.3 °F 66% 30.25 in 10.0 mi ESE 5.8 mph - N/A   Overcast
4:35 AM 21.0 °F 13.4 °F 12.4 °F 69% 30.25 in 10.0 mi East 5.8 mph - N/A   Overcast
4:55 AM 21.0 °F 13.4 °F 12.7 °F 70% 30.25 in 10.0 mi East 5.8 mph - N/A   Overcast
5:15 AM 21.2 °F 13.6 °F 12.0 °F 68% 30.25 in 10.0 mi East 5.8 mph - N/A   Scattered Clouds
5:35 AM 21.2 °F 11.7 °F 12.7 °F 70% 30.24 in 10.0 mi East 8.1 mph - N/A   Clear
5:55 AM 21.6 °F 14.0 °F 12.6 °F 68% 30.25 in 10.0 mi East 5.8 mph - N/A   Scattered Clouds
6:15 AM 21.9 °F 14.5 °F 13.5 °F 70% 30.25 in 10.0 mi East 5.8 mph - N/A   Overcast
6:35 AM 22.3 °F 13.9 °F 13.6 °F 69% 30.24 in 10.0 mi East 6.9 mph - N/A   Overcast
6:55 AM 22.1 °F 15.9 °F 13.1 °F 68% 30.25 in 10.0 mi ESE 4.6 mph - N/A   Overcast
7:15 AM 22.5 °F 13.2 °F 13.5 °F 68% 30.24 in 10.0 mi East 8.1 mph - N/A   Overcast
7:35 AM 23.0 °F 14.7 °F 14.0 °F 68% 30.24 in 10.0 mi East 6.9 mph - N/A   Mostly Cloudy
7:55 AM 23.7 °F 14.0 °F 14.4 °F 67% 30.24 in 10.0 mi East 9.2 mph - N/A   Overcast
8:15 AM 23.9 °F 15.0 °F 14.5 °F 67% 30.23 in 10.0 mi ESE 8.1 mph - N/A   Mostly Cloudy
8:35 AM 24.6 °F 20.3 °F 15.1 °F 67% 30.24 in 10.0 mi ESE 3.5 mph - N/A   Mostly Cloudy
8:56 AM 24.8 °F 20.5 °F 14.9 °F 66% 30.24 in 10.0 mi ESE 3.5 mph - N/A   Scattered Clouds
9:15 AM 25.0 °F 20.7 °F 15.4 °F 67% 30.23 in 10.0 mi East 3.5 mph - N/A   Clear
9:35 AM 25.7 °F 20.1 °F 15.8 °F 66% 30.22 in 10.0 mi ESE 4.6 mph - N/A   Clear
9:55 AM 26.4 °F 18.9 °F 16.2 °F 65% 30.21 in 10.0 mi ESE 6.9 mph - N/A   Mostly Cloudy
10:15 AM 27.5 °F 22.2 °F 17.1 °F 65% 30.20 in 10.0 mi ESE 4.6 mph - N/A   Overcast
10:35 AM 28.6 °F 20.7 °F 18.1 °F 65% 30.20 in 10.0 mi SE 8.1 mph - N/A   Overcast
10:55 AM 29.3 °F 23.2 °F 18.7 °F 65% 30.19 in 10.0 mi ESE 5.8 mph - N/A   Mostly Cloudy
11:15 AM 30.9 °F 25.2 °F 19.4 °F 62% 30.19 in 10.0 mi ESE 5.8 mph - N/A   Scattered Clouds
11:35 AM 32.4 °F 26.0 °F 20.8 °F 63% 30.18 in 10.0 mi ESE 6.9 mph - N/A   Clear
11:55 AM 34.3 °F 27.7 °F 21.6 °F 60% 30.17 in 10.0 mi ESE 8.1 mph - N/A   Clear
12:15 PM 34.2 °F 28.2 °F 22.1 °F 61% 30.15 in 10.0 mi ESE 6.9 mph - N/A   Scattered Clouds
12:35 PM 36.5 °F 31.0 °F 22.8 °F 58% 30.14 in 10.0 mi ESE 6.9 mph - N/A   Mostly Cloudy
12:56 PM 38.3 °F 33.2 °F 23.2 °F 55% 30.13 in 10.0 mi SE 6.9 mph - N/A   Clear
1:15 PM 38.5 °F 33.4 °F 22.8 °F 53% 30.11 in 10.0 mi ESE 6.9 mph - N/A   Clear
1:35 PM 38.7 °F 33.6 °F 23.4 °F 54% 30.10 in 10.0 mi ESE 6.9 mph - N/A   Clear
1:56 PM 38.8 °F 32.1 °F 23.2 °F 53% 30.08 in 10.0 mi ESE 10.4 mph - N/A   Clear
2:15 PM 40.3 °F 34.9 °F 23.2 °F 51% 30.07 in 10.0 mi SE 8.1 mph - N/A   Clear
2:35 PM 41.9 °F 36.3 °F 22.8 °F 47% 30.06 in 10.0 mi ESE 9.2 mph - N/A   Clear
2:55 PM 43.3 °F 39.2 °F 23.0 °F 45% 30.06 in 10.0 mi East 6.9 mph - N/A   Clear
3:15 PM 42.8 °F 39.3 °F 23.4 °F 46% 30.06 in 10.0 mi East 5.8 mph - N/A   Clear
3:35 PM 42.3 °F 37.3 °F 23.5 °F 48% 30.05 in 10.0 mi ESE 8.1 mph - N/A   Clear
3:55 PM 41.9 °F 36.9 °F 24.1 °F 49% 30.04 in 10.0 mi ESE 8.1 mph - N/A   Clear
4:15 PM 41.9 °F 36.3 °F 24.4 °F 50% 30.03 in 10.0 mi ESE 9.2 mph - N/A   Clear
4:35 PM 42.6 °F 37.2 °F 24.6 °F 49% 30.02 in 10.0 mi ESE 9.2 mph - N/A   Clear
4:56 PM 41.9 °F 35.4 °F 24.6 °F 50% 30.01 in 10.0 mi ESE 11.5 mph 16.1 mph N/A   Clear
5:15 PM 40.8 °F 35.0 °F 24.8 °F 53% 30.00 in 10.0 mi ESE 9.2 mph - N/A   Clear
5:35 PM 40.1 °F 34.7 °F 25.2 °F 55% 29.99 in 10.0 mi East 8.1 mph - N/A   Clear
5:55 PM 39.2 °F 32.0 °F 25.2 °F 57% 29.99 in 10.0 mi ESE 11.5 mph - N/A   Clear
6:15 PM 37.9 °F 32.1 °F 25.3 °F 60% 29.99 in 10.0 mi East 8.1 mph - N/A   Clear
6:35 PM 37.8 °F 31.8 °F 25.2 °F 60% 29.99 in 10.0 mi East 8.1 mph - N/A   Clear
6:55 PM 37.4 °F 30.8 °F 25.2 °F 61% 29.99 in 10.0 mi ESE 9.2 mph - N/A   Clear
7:15 PM 36.9 °F 30.7 °F 25.2 °F 63% 29.99 in 10.0 mi ESE 8.1 mph - N/A   Clear
7:35 PM 36.5 °F 30.3 °F 25.3 °F 64% 29.97 in 10.0 mi ESE 8.1 mph - N/A   Clear
7:55 PM 36.1 °F 29.9 °F 25.3 °F 65% 29.96 in 10.0 mi ESE 8.1 mph - N/A   Clear
8:15 PM 35.6 °F 30.7 °F 25.3 °F 66% 29.96 in 10.0 mi ESE 5.8 mph - N/A   Clear
8:35 PM 34.9 °F 28.3 °F 25.2 °F 68% 29.95 in 10.0 mi ESE 8.1 mph - N/A   Clear
8:56 PM 34.3 °F 28.4 °F 25.2 °F 69% 29.94 in 10.0 mi ESE 6.9 mph - N/A   Clear
9:15 PM 34.2 °F 28.2 °F 25.3 °F 70% 29.94 in 10.0 mi ESE 6.9 mph - N/A   Clear
9:35 PM 33.6 °F 27.5 °F 25.0 °F 71% 29.93 in 10.0 mi ESE 6.9 mph - N/A   Clear
9:55 PM 33.4 °F 27.3 °F 25.2 °F 72% 29.93 in 10.0 mi ESE 6.9 mph - N/A   Clear
10:15 PM 33.8 °F 27.0 °F 25.5 °F 72% 29.92 in 10.0 mi ESE 8.1 mph - N/A   Clear
10:35 PM 33.8 °F 26.4 °F 25.7 °F 72% 29.92 in 10.0 mi ESE 9.2 mph - N/A   Clear
10:55 PM 34.2 °F 26.2 °F 26.2 °F 73% 29.90 in 10.0 mi ESE 10.4 mph - N/A   Scattered Clouds
11:15 PM 34.5 °F 27.3 °F 26.4 °F 72% 29.90 in 10.0 mi ESE 9.2 mph - N/A   Clear
11:35 PM 34.7 °F 28.1 °F 27.0 °F 73% 29.89 in 10.0 mi ESE 8.1 mph - N/A   Clear
11:56 PM 34.7 °F 28.8 °F 27.1 °F 74% 29.87 in 10.0 mi ESE 6.9 mph - N/A   Clear